PAJNPASI

Guest
Details From PAJN - Juneau Intl
To PASI - SITKA ROCKY GUTIERREZ
Flight Number -
Tags generated
Created
Modified
Stats Distance 84 nm / 156 km
Max Altitude 10,100 ft / 3,078 m
Waypoints 3
Social Downloads 3
Likes 0
Share VATSIM

Download

Looking for another format? Having issues loading an existing format? Contact us
Advertisement - Login to hide

Notes

Basic altitude profile: - Ascent Rate: 2500ft/min - Ascent Speed: 250kts - Cruise Altitude: 35000ft - Cruise Speed: 420kts - Descent Rate: 1500ft/min - Descent Speed: 250kts Options: - Use NATs: yes - Use PACOTS: yes - Use low airways: yes - Use high airways: yes

Route

PAJN HOODS PASI

ID Type Via Altitude Latitude Longitude Leg Dist Tot Dist Heading (true) Name
O PAJN APT - 0 ft / 0 m 58.35496˚ -134.57628˚ - 0 nm - Juneau Intl
HOODS FIX - 10,100 ft / 3,078 m 57.74293˚ -134.68157˚ 36 nm 36 nm 185° / 185° -
O PASI APT - 0 ft / 0 m 57.04713˚ -135.36160˚ 47 nm 84 nm 208° / 207° SITKA ROCKY GUTIERREZ

Altitude Profile

Advertisement - Login to hide

PAJN

Details ICAO PAJN (JNU)
Name Juneau Intl
Region USA (Alaska)
Timezone America/Juneau (UTC-9.0)
Stats Elevation 21 ft / 6 m (AMSL)
Location 58.354964° -134.576278°
Runways 1
Magnetic Variation 19.146° E

METAR

PAJN 170353Z 03003KT 10SM FEW007 OVC039 04/04 A2950

Decode

TAF

PAJN 162331Z 1700/1724 08008KT P6SM -SHRA SCT018 OVC035 TEMPO 1700/1702 3SM SHRA BR BKN018 FM170200 12008KT P6SM -SHRA BKN025 OVC035 FM170600 10008KT P6SM -SHRA SCT025 OVC035 FM171800 12010KT P6SM -SHRA BKN025 OVC035

Decode

Departure Runways

ID Width Length Bearing (true) Bearing (mag) Surface Threshold Offset Overrun Length
08 150 ft / 46 m 8,430 ft / 2,570 m 104.87° 85.72° Asphalt 0 ft / 0 m 450 ft / 137 m
26 150 ft / 46 m 8,430 ft / 2,570 m 284.90° 265.75° Asphalt 0 ft / 0 m 225 ft / 69 m

PASI

Details ICAO PASI (SIT)
Name SITKA ROCKY GUTIERREZ
Region USA (Alaska)
Timezone America/Juneau (UTC-9.0)
Stats Elevation 21 ft / 6 m (AMSL)
Location 57.047128° -135.361597°
Runways 1
Magnetic Variation 18.749° E

METAR

PASI 170353Z 26011G17KT 10SM -RA FEW020 BKN033 OVC039 05/03 A2962

Decode

TAF

TAF AMD PASI 170302Z 1703/1724 22010KT P6SM -SHRA SCT020 BKN035 OVC050 WS020/27020KT TEMPO 1703/1706 26015KT 6SM -SHRA BR SCT020 BKN025 OVC040 FM171200 18009KT P6SM -SHRA SCT030 BKN040 OVC050

Decode

Destination Runways

ID Width Length Bearing (true) Bearing (mag) Surface Threshold Offset Overrun Length
11 150 ft / 46 m 6,485 ft / 1,977 m 135.57° 116.82° Asphalt 0 ft / 0 m 0 ft / 0 m
29 150 ft / 46 m 6,485 ft / 1,977 m 315.59° 296.84° Asphalt 0 ft / 0 m 0 ft / 0 m

Approach Navaids

Runway Type Ident Frequency Range Bearing (true) Bearing (mag) Slope Elevation
11 Localiser ISIT 108.90 MHz 18 nm / 33 km 143.51° 124.76° - 15 ft / 5 m (AMSL)
11 DME ISIT 108.90 MHz 18 nm / 33 km - - - 34 ft / 10 m (AMSL)

Popular Alternatives